Galena, Nevada Weather observations

Data are for 60 minute period ending nearest time listed.
 Day   Time    Ave.   Ave.  Ave.  Vector   Max.   Total    Solar   
  of    of     Air    Rel.  Wind   Wind    Wind  Precip.   Rad.    
Year   Day     Temp.  Hum.  Speed  Dir.    Gust                    
2026   (PST)    F      %     mph   deg.    mph     in.     W/m2    
------------------------------------------------------------------- 
 243   19:00   70.0    23   14.0   241     29.0    2.02      12  
 243   20:00   68.0    23   11.0   234     25.0    2.02       0  
 243   21:00   68.0    23    7.0   211     22.0    2.02       0  
 243   22:00   66.0    24    7.0   184     14.0    2.02       0  
 243   23:00   63.0    31    3.0   176     13.0    2.02       0  
 244    0:00   62.0    32    4.0   129     16.0    2.02       0  
 244    1:00   61.0    35    5.0    89     11.0    2.02       0  
 244    2:00   58.0    39    2.0    93     10.0    2.02       0  
 244    3:00   58.0    40    2.0   351     14.0    2.02       0  
 244    4:00   56.0    41    3.0   352      9.0    2.02       0  
 244    5:00   55.0    44    3.0   300      8.0    2.02       0  
 244    6:00   54.0    45    3.0   297      6.0    2.02       4  
 244    7:00   63.0    28    4.0   204     11.0    2.02     129  
 244    8:00   66.0    27    8.0   185     19.0    2.02     321  
 244    9:00   68.0    25   10.0   183     21.0    2.02     515  
 244   10:00   69.0    23   11.0   218     24.0    2.02     673  
 244   11:00   72.0    17   10.0   216     24.0    2.02     803  
 244   12:00   72.0    17   11.0   199     25.0    2.02     805  
 244   13:00   73.0    19   12.0   225     28.0    2.02     733  
 244   14:00   70.0    15   14.0   233     31.0    2.02     695  
 244   15:00   68.0    19   14.0   247     33.0    2.02     568  
 244   16:00   69.0    18   15.0   230     31.0    2.02     556  
 244   17:00   66.0    22   11.0   226     27.0    2.02     399  
 244   18:00   61.0    26   12.0   207     29.0    2.02     105  

Return to Galena, Nevada graphs page.


Western Regional Climate Center,wrcc@dri.edu